"Pseudo-MPEC" for S521053

Created 2023 Sep 22 12:22:32 UT using Find_Orb

Click here for an explanation of pseudo-MPECs

 
 Astrometry: 
     S521053* C2023 09 17-_Ja-xSxq9aB3b1F^O\:1RXK$K7uYPU]Wpj/JB'=]w_p_J=wSS7eY01
     S521053  C2023 09 17+I6cO'Astrometry8bXredacted;nclickEidix42%QIVk@p;7mIY01
     S521053  C2023 09 17j+4O.$l]+*y=xD,chere4+Qd]IforANC7explanationCZ^l$CZ-Y01

Station data:
(Y01) SONEAR 2 Observatory, Belo Horizonte  (S19.881967 W43.984200)  Brazil.

Orbital elements:  S521053
   Perigee 2023 Sep 17.00194 +/- 33.7 TT =  0:02:47 (JD 2460204.50194)
Epoch 2023 Sep 17.0 TT = JDT 2460204.5                           AutoNEOCP
q 51783.6772 +/- 3.39e+7            (J2000 equator)
H   27.70 G 0.15                    Peri.  236.42972 +/- 53
                                    Node    29.64366 +/- 70
e  53.1031780 +/- 0.228             Incl.   29.60446 +/- 5.4
From 3 observations 2023 Sept. 17 (66.5 sec); mean residual 1".00
Residuals in arcseconds: 
230917 Y01  .95+  .43+    230917 Y01  1.8-  .83-    230917 Y01  .88+  .40+    

Ephemerides (geocentric):
Date (UTC) HH   RA             Dec           delta  r     elong  mag " sig PA
---- --------  ------------   ------------  ------ ------ -----  --- --------
2023 09 22 12  00 01 27.167   -15 27 45.96  .06381 1.0656 164.9 22.7  68d 101
2023 09 22 13  00 01 27.695   -15 27 38.90  .06429 1.0660 164.9 22.7  68d 101
2023 09 22 14  00 01 28.216   -15 27 31.87  .06478 1.0665 164.9 22.7  68d 101
2023 09 22 15  00 01 28.729   -15 27 24.86  .06527 1.0669 164.9 22.7  68d 101
2023 09 22 16  00 01 29.235   -15 27 17.89  .06575 1.0674 164.9 22.7  68d 101
2023 09 22 17  00 01 29.733   -15 27 10.94  .06624 1.0678 164.9 22.8  67d 101
2023 09 22 18  00 01 30.224   -15 27 04.02  .06672 1.0683 164.8 22.8  67d 101
2023 09 22 19  00 01 30.709   -15 26 57.13  .06721 1.0688 164.8 22.8  67d 101
2023 09 22 20  00 01 31.186   -15 26 50.27  .06770 1.0692 164.8 22.8  67d 101
2023 09 22 21  00 01 31.657   -15 26 43.42  .06818 1.0697 164.8 22.8  67d 101
2023 09 22 22  00 01 32.121   -15 26 36.60  .06867 1.0701 164.8 22.8  67d 101
2023 09 22 23  00 01 32.580   -15 26 29.81  .06915 1.0706 164.8 22.9  67d 101
2023 09 23 00  00 01 33.031   -15 26 23.03  .06964 1.0710 164.8 22.9  67d 101
2023 09 23 01  00 01 33.477   -15 26 16.27  .07013 1.0715 164.8 22.9  67d 101
2023 09 23 02  00 01 33.917   -15 26 09.54  .07061 1.0720 164.7 22.9  67d 101
2023 09 23 03  00 01 34.352   -15 26 02.82  .07110 1.0724 164.7 22.9  67d 101
2023 09 23 04  00 01 34.780   -15 25 56.12  .07159 1.0729 164.7 22.9  67d 101
2023 09 23 05  00 01 35.203   -15 25 49.44  .07207 1.0733 164.7 23.0  67d 101
2023 09 23 06  00 01 35.621   -15 25 42.77  .07256 1.0738 164.7 23.0  67d 101
2023 09 23 07  00 01 36.033   -15 25 36.12  .07305 1.0742 164.7 23.0  67d 101
2023 09 23 08  00 01 36.440   -15 25 29.48  .07353 1.0747 164.7 23.0  67d 101
2023 09 23 09  00 01 36.842   -15 25 22.86  .07402 1.0751 164.7 23.0  67d 101
2023 09 23 10  00 01 37.239   -15 25 16.25  .07451 1.0756 164.6 23.0  66d 101
2023 09 23 11  00 01 37.632   -15 25 09.65  .07500 1.0761 164.6 23.0  66d 101
2023 09 23 12  00 01 38.019   -15 25 03.07  .07548 1.0765 164.6 23.1  66d 101
2023 09 23 13  00 01 38.402   -15 24 56.49  .07597 1.0770 164.6 23.1  66d 101
2023 09 23 14  00 01 38.781   -15 24 49.93  .07646 1.0774 164.6 23.1  66d 101
2023 09 23 15  00 01 39.154   -15 24 43.38  .07694 1.0779 164.6 23.1  66d 101
2023 09 23 16  00 01 39.524   -15 24 36.83  .07743 1.0783 164.6 23.1  66d 101
2023 09 23 17  00 01 39.889   -15 24 30.30  .07792 1.0788 164.6 23.1  66d 101
2023 09 23 18  00 01 40.250   -15 24 23.77  .07841 1.0792 164.5 23.1  66d 101
2023 09 23 19  00 01 40.607   -15 24 17.25  .07889 1.0797 164.5 23.2  66d 101
2023 09 23 20  00 01 40.960   -15 24 10.74  .07938 1.0802 164.5 23.2  69d 100
2023 09 23 21  00 01 41.309   -15 24 04.23  .07987 1.0806 164.5 23.2  67d 101
2023 09 23 22  00 01 41.655   -15 23 57.73  .08036 1.0811 164.5 23.2  66d 101
2023 09 23 23  00 01 41.996   -15 23 51.24  .08084 1.0815 164.5 23.2  66d 101
2023 09 24 00  00 01 42.334   -15 23 44.75  .08133 1.0820 164.5 23.2  67d 101
2023 09 24 01  00 01 42.668   -15 23 38.27  .08182 1.0824 164.4 23.2  67d 101
2023 09 24 02  00 01 42.999   -15 23 31.78  .08231 1.0829 164.4 23.3  67d 101
2023 09 24 03  00 01 43.326   -15 23 25.31  .08280 1.0833 164.4 23.3  67d 101
2023 09 24 04  00 01 43.650   -15 23 18.84  .08328 1.0838 164.4 23.3  67d 101
2023 09 24 05  00 01 43.970   -15 23 12.36  .08377 1.0843 164.4 23.3  67d 101
2023 09 24 06  00 01 44.287   -15 23 05.90  .08426 1.0847 164.4 23.3  68d 101
2023 09 24 07  00 01 44.601   -15 22 59.43  .08475 1.0852 164.4 23.3  69d 100
2023 09 24 08  00 01 44.912   -15 22 52.97  .08524 1.0856 164.3 23.3  69d 100
2023 09 24 09  00 01 45.220   -15 22 46.50  .08573 1.0861 164.3 23.4  69d 100
2023 09 24 10  00 01 45.525   -15 22 40.04  .08621 1.0865 164.3 23.4  69d 100
2023 09 24 11  00 01 45.827   -15 22 33.58  .08670 1.0870 164.3 23.4  69d 100